Location: 22
(39.7117°N, 89.5929°W)
Time: 07:14:09
(UTC-05:00)

deb Explorer IX - Pass Details

Date: 25 April 2025
Orbit: 386 x 450 km, 38.6° (Epoch: 05 May)

Event Time Altitude Azimuth Distance (km) Brightness Sun altitude
Rises 20:36:29 0° 275° (W) 2,337 ? -9.6°
Reaches altitude 10° 20:38:39 10° 270° (W) 1,455 ? -10.0°
Maximum altitude 20:41:51 53° 193° (SSW) 492 ? -10.5°
Enters shadow 20:44:01 18° 120° (ESE) 1,045 ? -10.9°
